Wind_Speed
6 6 6 6 6 7 7 6 6 6 6 6 6 6 6 6 6 6 6 6 6 6 7 6 5 5 5 4 3 3 3 3 4 4 4 4 5 5 6 6 7 7 7
4 4 5 5 5 5 5 5 5 5 5 5 5 5 5 4 4 4 5 5 4 5 6 6 5 4 4 3 4 4 4 4 5 5 5 5 6 6 7 8 8 8 9
2 2 3 3 4 4 4 4 4 4 4 4 3 3 4 4 4 3 4 4 4 4 5 5 5 5 4 4 4 5 5 6 6 6 6 6 6 7 8 8 9 9 10
2 1 2 2 2 3 3 3 3 3 3 3 3 3 3 3 3 3 3 3 3 4 4 5 5 5 4 4 5 6 6 6 7 7 6 7 7 8 8 9 9 10 10
3 2 0 0 0 0 1 1 1 2 2 3 3 3 3 3 3 3 3 4 3 4 4 4 5 5 5 5 6 6 7 8 8 7 7 8 8 8 9 9 10 10 11
4 3 3 2 2 1 1 1 1 2 3 3 4 4 4 4 4 4 4 4 4 5 5 5 5 6 6 7 7 8 8 8 8 8 9 9 9 9 10 10 11 12 13
6 5 5 4 4 3 3 3 3 3 4 5 5 5 5 5 6 6 6 6 6 6 6 6 6 7 7 7 8 8 8 8 8 9 9 10 10 10 11 11 12 13 14
7 7 6 6 6 6 5 5 5 5 6 6 6 7 7 7 8 8 8 8 8 8 7 7 8 8 8 9 9 9 10 10 10 10 10 10 11 12 12 13 14 15 16
7 7 7 7 7 7 7 7 7 8 8 8 8 8 8 8 9 10 10 10 10 9 9 9 9 9 10 11 11 11 12 12 12 12 12 13 13 13 14 15 16 16 17
8 9 9 9 9 9 9 8 8 9 10 10 10 10 9 9 10 11 11 12 12 11 11 11 11 12 12 13 13 14 14 14 14 15 15 15 15 16 17 17 18 19 19
11 11 11 10 10 10 10 11 10 10 11 11 11 11 11 11 12 11 11 11 12 12 13 13 13 14 14 15 16 16 16 16 16 17 17 17 18 18 19 19 20 21 21
13 12 12 12 12 12 12 13 12 12 12 13 13 13 12 12 12 12 13 13 13 13 14 14 14 15 16 17 17 18 18 18 18 18 18 18 19 19 20 21 22 22 22
14 14 14 14 14 15 15 15 15 15 14 14 15 15 14 14 14 14 15 15 15 15 16 16 16 16 17 17 18 19 19 19 20 20 20 20 21 21 22 22 23 23 24
16 16 17 17 17 18 18 17 17 16 17 17 17 17 17 16 16 15 16 17 17 17 17 18 18 18 18 19 19 20 21 21 22 22 22 23 23 23 23 23 24 25 26
19 19 19 20 20 20 19 18 19 19 19 20 20 19 19 19 18 18 18 18 19 19 19 19 20 20 20 21 21 22 22 22 23 23 23 24 25 25 26 26 27 28 27
21 21 22 22 23 23 21 20 20 21 21 21 21 20 20 20 21 20 20 21 21 21 21 21 21 22 22 22 23 23 23 23 24 24 25 25 26 27 28 28 28 28 28
23 23 23 24 24 24 24 23 22 22 22 21 21 22 22 21 22 22 23 23 23 23 23 23 24 24 24 25 25 25 25 25 25 26 27 27 27 28 29 30 30 30 30
25 26 26 25 25 26 26 26 25 25 24 24 23 24 24 24 24 24 24 24 24 24 24 25 25 25 25 26 26 27 27 27 27 27 28 28 29 29 30 31 31 31 31
28 27 27 27 27 27 28 28 28 27 27 26 26 26 26 26 27 27 27 26 26 27 27 27 27 27 27 27 28 28 29 29 29 29 29 30 30 31 32 32 32 32 32
29 29 29 29 28 29 30 30 30 30 29 28 29 29 29 29 29 29 29 29 29 29 29 29 30 29 28 29 29 30 30 31 31 31 32 32 33 33 33 33 33 33 33
30 30 30 30 31 31 31 32 32 31 30 29 30 31 31 31 31 31 31 31 31 31 31 31 31 31 30 30 31 31 32 32 33 33 33 33 34 34 34 34 34 34 34
31 31 31 31 32 33 33 33 32 32 31 31 32 32 32 32 33 33 33 33 33 33 32 32 32 32 32 32 32 32 32 33 34 34 34 35 34 34 34 35 35 35 35
33 33 33 33 33 34 34 34 33 33 34 33 35 35 34 34 35 35 34 34 34 34 33 33 33 33 33 33 33 33 33 34 35 35 35 35 35 35 35 35 35 35 35
34 34 34 35 35 35 34 35 35 35 35 36 36 36 35 35 35 35 35 35 34 34 34 34 34 34 34 34 34 34 35 35 36 36 36 36 35 36 35 35 35 35 35
35 35 34 35 34 34 34 34 34 35 36 36 35 34 34 34 35 35 35 35 35 35 35 35 35 34 33 33 34 34 34 34 35 36 36 36 36 35 35 35 35 35 35
34 34 34 34 33 33 33 34 34 35 35 35 34 33 32 33 33 34 34 35 35 35 35 35 35 35 34 34 34 34 34 34 34 35 35 35 35 35 35 35 35 35 34
Wind_Direction
72 69 64 62 65 72 74 78 82 80 79 75 71 68 64 68 66 65 60 58 60 55 46 38 41 47 51 58 53 47 28 5 346 337 329 324 318 321 319 318 319 319 320
89 82 75 67 60 67 75 77 78 78 74 70 64 57 51 53 56 50 48 46 49 41 35 35 35 35 34 34 16 9 356 341 334 333 326 317 318 318 318 313 312 314 314
152 111 88 76 67 66 70 73 75 70 62 56 52 49 35 34 43 39 31 32 37 30 30 27 24 15 9 6 354 352 348 340 338 340 334 325 319 317 316 313 312 311 310
212 128 88 87 78 69 68 64 70 63 48 34 22 20 12 13 18 16 10 8 9 13 13 5 3 359 352 344 338 333 338 337 333 332 335 334 328 320 315 312 311 308 310
236 226 212 309 244 82 74 62 65 36 13 356 342 335 332 336 339 337 336 333 334 338 341 342 345 347 336 327 325 325 326 328 329 330 327 327 326 325 320 314 310 309 310
248 249 253 255 241 243 254 263 289 311 314 314 316 314 314 312 309 308 312 312 310 313 314 315 321 326 323 320 318 320 321 324 324 322 321 322 322 319 316 316 315 313 309
259 274 268 245 234 244 262 270 280 292 295 296 302 305 302 298 291 290 297 302 299 300 301 306 310 309 311 313 312 314 314 316 317 316 316 316 316 315 315 311 309 311 311
261 271 265 247 243 252 263 268 275 283 288 289 290 295 299 296 289 287 288 291 292 292 293 296 300 300 300 303 305 307 308 307 307 307 308 309 310 311 312 310 307 306 307
257 262 261 255 251 251 257 266 274 279 283 283 285 286 289 291 287 284 285 285 287 286 286 288 289 292 295 297 299 300 300 300 301 302 303 305 304 306 307 307 307 305 306
256 260 260 260 257 255 258 265 273 277 280 283 286 288 286 284 283 285 286 282 281 281 283 286 288 289 289 292 295 295 295 297 297 298 300 302 302 302 302 304 304 303 302
264 262 260 267 264 262 266 266 269 276 280 284 286 287 283 280 280 287 289 285 283 283 282 284 286 288 289 290 291 292 292 293 293 295 297 298 297 296 297 299 300 301 302
266 267 264 264 268 268 271 271 271 274 278 281 283 283 282 280 282 282 282 282 283 286 286 287 286 287 289 290 290 291 290 290 289 290 292 293 293 294 295 296 298 300 302
266 267 268 268 270 270 269 272 274 275 278 279 281 280 283 282 282 281 280 281 282 285 287 288 288 288 288 289 290 289 288 287 288 288 289 291 292 294 296 297 298 300 301
262 265 270 272 269 267 268 270 273 274 275 277 279 280 282 282 280 280 280 280 280 284 286 287 286 287 287 288 288 288 288 287 287 288 288 290 291 292 295 296 299 301 301
267 268 271 274 273 269 270 270 271 273 274 275 275 276 277 279 280 280 282 282 283 285 285 285 284 284 286 287 288 289 289 290 289 288 289 290 291 292 293 295 297 300 301
269 271 273 276 277 273 271 271 271 272 275 274 273 275 278 280 281 282 282 283 284 284 284 285 284 283 284 286 287 288 290 290 289 289 289 291 291 291 292 294 296 298 300
271 272 273 273 276 275 273 271 271 273 277 276 275 277 279 280 281 282 282 283 283 283 283 283 283 284 284 285 286 287 288 289 291 290 289 289 291 291 292 293 294 294 296
273 273 272 272 273 274 274 272 272 273 276 276 276 277 277 278 279 280 282 282 282 282 282 283 284 286 285 285 286 286 286 287 288 289 290 290 291 292 292 294 295 294 294
273 273 270 270 272 274 275 274 274 273 274 273 273 273 274 276 278 279 279 279 279 280 281 283 284 285 286 285 284 285 285 285 286 288 289 289 290 291 292 293 294 294 294
270 272 271 270 272 274 274 275 276 273 271 270 270 271 273 275 276 277 276 277 277 278 279 281 282 284 285 285 283 283 284 285 286 287 287 288 289 289 290 292 292 294 295
268 270 271 272 273 273 274 274 276 273 271 270 270 272 274 275 275 276 277 277 279 278 280 282 282 283 284 285 284 284 285 285 285 286 287 288 288 288 289 290 290 292 293
266 269 271 273 275 274 273 274 275 273 271 270 271 273 274 275 275 276 277 278 279 280 282 283 283 284 284 284 283 284 284 285 286 285 286 287 288 288 289 290 290 291 292
268 269 271 273 274 275 274 274 274 272 272 273 273 273 274 275 275 276 276 277 278 280 282 283 283 283 283 283 283 283 284 285 286 286 286 288 288 288 288 288 289 289 291
269 271 273 273 273 273 273 273 273 273 274 274 274 274 274 275 274 276 276 276 278 279 281 282 282 282 283 283 283 283 284 285 286 286 286 288 289 289 287 287 288 290 292
269 269 271 273 272 272 271 273 276 277 277 277 276 275 274 274 275 276 277 278 278 279 279 280 281 281 280 281 282 284 285 286 286 285 286 287 288 288 287 287 289 290 291
269 270 272 273 272 272 272 274 276 277 277 277 276 276 276 276 277 278 278 278 279 280 279 279 279 279 279 280 282 284 286 287 287 287 287 287 289 290 289 289 289 290 290
Height
5901 5900 5900 5899 5898 5897 5897 5897 5897 5897 5896 5896 5896 5895 5895 5894 5893 5893 5892 5891 5891 5890 5890 5889 5888 5888 5887 5887 5886 5886 5886 5885 5885 5884 5884 5884 5883 5883 5882 5882 5881 5880 5880
5901 5901 5901 5900 5899 5899 5898 5898 5897 5897 5897 5897 5897 5896 5895 5894 5894 5893 5893 5892 5892 5891 5890 5889 5889 5888 5887 5887 5886 5886 5885 5885 5884 5883 5883 5883 5883 5881 5881 5880 5879 5879 5878
5902 5901 5901 5901 5900 5900 5899 5899 5898 5898 5898 5897 5897 5896 5895 5895 5894 5894 5893 5893 5892 5891 5890 5889 5889 5888 5887 5887 5886 5885 5885 5884 5883 5882 5882 5881 5881 5880 5879 5878 5878 5877 5876
5901 5901 5901 5901 5900 5900 5900 5899 5899 5898 5898 5898 5897 5896 5896 5895 5894 5894 5893 5893 5892 5891 5890 5889 5888 5887 5887 5886 5885 5884 5884 5883 5882 5881 5880 5880 5879 5879 5878 5877 5876 5875 5874
5901 5901 5901 5901 5900 5900 5900 5899 5899 5898 5898 5898 5897 5896 5896 5895 5894 5894 5893 5892 5892 5891 5890 5889 5888 5887 5886 5885 5885 5884 5883 5882 5881 5880 5879 5878 5877 5877 5876 5875 5874 5873 5872
5900 5900 5900 5900 5900 5900 5899 5899 5899 5898 5898 5897 5896 5896 5895 5894 5894 5893 5892 5891 5891 5890 5889 5889 5888 5887 5886 5885 5884 5883 5882 5881 5880 5879 5878 5877 5876 5875 5874 5873 5872 5870 5869
5899 5899 5899 5899 5899 5899 5899 5898 5898 5897 5897 5896 5895 5895 5894 5893 5892 5892 5891 5890 5889 5889 5888 5887 5886 5886 5885 5884 5883 5882 5881 5879 5878 5877 5876 5875 5874 5873 5872 5870 5869 5868 5866
5898 5898 5898 5898 5898 5897 5897 5897 5897 5896 5895 5894 5893 5893 5892 5892 5891 5890 5889 5888 5888 5887 5886 5885 5885 5884 5883 5882 5881 5880 5879 5878 5877 5876 5875 5874 5872 5871 5869 5868 5866 5865 5864
5896 5896 5896 5896 5896 5896 5896 5895 5895 5894 5893 5893 5891 5891 5890 5889 5888 5888 5887 5886 5885 5885 5884 5883 5882 5882 5881 5880 5879 5878 5877 5876 5875 5873 5872 5871 5870 5868 5866 5865 5863 5861 5860
5894 5894 5894 5894 5894 5894 5893 5893 5893 5892 5891 5890 5889 5888 5887 5886 5885 5885 5884 5883 5883 5882 5881 5881 5880 5879 5878 5877 5876 5875 5874 5873 5872 5870 5869 5868 5866 5865 5863 5861 5859 5857 5855
5892 5891 5891 5891 5891 5891 5891 5890 5890 5889 5889 5888 5887 5886 5884 5883 5882 5881 5881 5880 5879 5879 5878 5877 5876 5875 5874 5873 5872 5871 5870 5869 5868 5866 5865 5864 5862 5860 5859 5857 5855 5853 5850
5888 5888 5888 5888 5888 5888 5888 5887 5886 5886 5885 5885 5883 5882 5880 5880 5879 5878 5877 5876 5876 5875 5874 5873 5872 5871 5870 5869 5868 5867 5865 5864 5863 5862 5860 5859 5857 5855 5854 5852 5850 5847 5845
5885 5885 5885 5885 5885 5884 5884 5883 5882 5882 5881 5880 5879 5878 5877 5876 5875 5874 5873 5872 5871 5871 5870 5869 5868 5867 5865 5864 5863 5862 5860 5859 5858 5857 5855 5854 5852 5850 5848 5846 5844 5842 5839
5880 5880 5880 5880 5880 5879 5879 5878 5877 5876 5875 5875 5875 5874 5873 5871 5870 5870 5869 5868 5867 5866 5865 5864 5863 5862 5860 5859 5858 5857 5855 5854 5853 5851 5849 5848 5846 5844 5842 5840 5838 5836 5833
5875 5875 5875 5875 5875 5874 5873 5873 5872 5871 5870 5870 5869 5868 5868 5867 5866 5865 5864 5863 5862 5861 5860 5858 5857 5856 5855 5853 5852 5851 5849 5848 5847 5845 5843 5842 5840 5838 5836 5834 5832 5829 5827
5870 5869 5869 5869 5869 5868 5868 5867 5866 5865 5865 5864 5863 5862 5862 5861 5860 5859 5858 5857 5856 5855 5854 5852 5851 5850 5849 5847 5846 5844 5843 5841 5840 5838 5837 5835 5833 5831 5829 5827 5825 5822 5820
5864 5863 5863 5863 5862 5861 5861 5861 5860 5859 5858 5857 5856 5856 5855 5854 5854 5853 5851 5850 5849 5848 5847 5846 5844 5843 5842 5840 5839 5837 5836 5834 5833 5831 5830 5828 5826 5824 5822 5819 5817 5815 5812
5857 5856 5856 5855 5855 5854 5853 5853 5852 5851 5851 5850 5849 5848 5847 5847 5846 5845 5844 5843 5841 5840 5839 5838 5837 5835 5834 5833 5831 5830 5828 5827 5826 5824 5822 5820 5818 5816 5814 5811 5809 5806 5804
5849 5848 5848 5847 5847 5846 5845 5844 5844 5843 5842 5841 5841 5840 5840 5839 5838 5837 5836 5835 5833 5832 5831 5830 5829 5828 5826 5825 5823 5822 5820 5819 5818 5816 5814 5812 5810 5808 5805 5803 5801 5798 5796
5840 5840 5839 5839 5838 5837 5836 5836 5835 5834 5833 5832 5832 5831 5831 5830 5829 5828 5827 5826 5825 5824 5823 5822 5821 5819 5817 5816 5815 5813 5812 5811 5809 5807 5805 5803 5801 5799 5796 5794 5792 5789 5787
5831 5831 5830 5830 5829 5828 5827 5827 5826 5825 5824 5822 5822 5822 5821 5821 5820 5819 5818 5817 5816 5815 5814 5812 5812 5810 5809 5808 5806 5804 5802 5801 5800 5798 5796 5794 5791 5789 5787 5785 5782 5780 5778
5822 5822 5822 5821 5820 5819 5818 5817 5817 5816 5815 5814 5813 5812 5812 5811 5810 5809 5808 5807 5806 5805 5804 5803 5802 5801 5800 5798 5797 5795 5793 5791 5790 5788 5786 5784 5782 5779 5777 5775 5773 5771 5768
5812 5812 5812 5811 5811 5809 5808 5808 5807 5806 5805 5804 5803 5802 5801 5801 5800 5798 5798 5797 5796 5795 5794 5793 5792 5791 5790 5788 5787 5785 5784 5782 5780 5778 5776 5774 5772 5769 5767 5765 5763 5761 5759
5802 5802 5801 5801 5800 5799 5798 5797 5797 5796 5795 5794 5793 5792 5791 5790 5789 5788 5787 5787 5786 5785 5784 5783 5782 5781 5780 5779 5777 5775 5774 5772 5770 5768 5766 5763 5761 5759 5757 5755 5753 5752 5750
5791 5791 5790 5790 5789 5789 5788 5787 5786 5785 5784 5783 5782 5781 5780 5780 5779 5778 5777 5776 5775 5774 5774 5773 5772 5771 5770 5768 5767 5765 5764 5762 5760 5758 5756 5753 5751 5749 5747 5745 5743 5742 5740
5780 5780 5779 5779 5778 5778 5778 5777 5776 5775 5774 5773 5772 5771 5770 5769 5768 5767 5766 5765 5764 5763 5762 5761 5761 5760 5759 5758 5756 5755 5753 5752 5750 5748 5746 5743 5742 5739 5737 5735 5733 5732 5730